Time,TemperatureF,DewpointF,PressureIn,WindDirection,WindDirectionDegrees,WindSpeedMPH,WindSpeedGustMPH,Humidity,HourlyPrecipIn,Conditions,Clouds,dailyrainin,SoftwareType,DateUTC
2012-09-19 00:00:00,57.0,51.9,30.04,NE,45,0.0,0.0,83,0.00,,,0.00,WUHU21623XXSP,2012-09-19 07:00:00,
2012-09-19 00:05:00,56.8,51.7,30.04,NE,45,0.0,0.0,83,0.00,,,0.00,WUHU21623XXSP,2012-09-19 07:05:00,
2012-09-19 00:10:00,56.8,52.0,30.04,NE,45,0.0,0.0,84,0.00,,,0.00,WUHU21623XXSP,2012-09-19 07:10:00,
2012-09-19 00:15:00,56.5,51.3,30.04,NE,45,0.0,0.0,83,0.00,,,0.00,WUHU21623XXSP,2012-09-19 07:15:00,
2012-09-19 00:20:00,56.3,51.5,30.04,NE,45,0.0,0.0,84,0.00,,,0.00,WUHU21623XXSP,2012-09-19 07:20:00,
2012-09-19 00:25:00,56.3,51.5,30.04,NE,45,0.0,0.0,84,0.00,,,0.00,WUHU21623XXSP,2012-09-19 07:25:00,
2012-09-19 00:30:00,56.1,51.3,30.04,NE,45,0.0,0.0,84,0.00,,,0.00,WUHU21623XXSP,2012-09-19 07:30:00,
2012-09-19 00:35:00,55.9,51.1,30.05,NE,45,0.0,0.0,84,0.00,,,0.00,WUHU21623XXSP,2012-09-19 07:35:00,
2012-09-19 00:40:00,55.9,51.4,30.05,NE,45,0.0,0.0,85,0.00,,,0.00,WUHU21623XXSP,2012-09-19 07:40:00,
2012-09-19 00:45:00,55.8,51.3,30.05,NE,45,0.0,0.0,85,0.00,,,0.00,WUHU21623XXSP,2012-09-19 07:45:00,
2012-09-19 00:50:00,55.6,51.1,30.05,NE,45,0.0,0.0,85,0.00,,,0.00,WUHU21623XXSP,2012-09-19 07:50:00,
2012-09-19 00:55:00,55.6,51.1,30.05,NE,45,0.0,0.0,85,0.00,,,0.00,WUHU21623XXSP,2012-09-19 07:55:00,
2012-09-19 01:00:00,55.4,50.9,30.05,NE,45,0.0,0.0,85,0.00,,,0.00,WUHU21623XXSP,2012-09-19 08:00:00,
2012-09-19 01:05:00,55.2,50.7,30.05,NE,45,0.0,0.0,85,0.00,,,0.00,WUHU21623XXSP,2012-09-19 08:05:00,
2012-09-19 01:10:00,55.2,50.7,30.05,NE,45,0.0,0.0,85,0.00,,,0.00,WUHU21623XXSP,2012-09-19 08:10:00,
2012-09-19 01:15:00,55.2,50.7,30.06,NE,45,0.0,0.0,85,0.00,,,0.00,WUHU21623XXSP,2012-09-19 08:15:00,
2012-09-19 01:20:00,55.2,50.7,30.06,NE,45,0.0,0.0,85,0.00,,,0.00,WUHU21623XXSP,2012-09-19 08:20:00,
2012-09-19 01:25:00,55.2,50.7,30.06,NE,45,0.0,0.0,85,0.00,,,0.00,WUHU21623XXSP,2012-09-19 08:25:00,
2012-09-19 01:30:00,55.0,50.9,30.06,NE,45,0.0,0.0,86,0.00,,,0.00,WUHU21623XXSP,2012-09-19 08:30:00,
2012-09-19 01:35:00,54.9,50.7,30.06,NE,45,0.0,0.0,86,0.00,,,0.00,WUHU21623XXSP,2012-09-19 08:35:00,
2012-09-19 01:40:00,54.7,50.5,30.06,NE,45,0.0,0.0,86,0.00,,,0.00,WUHU21623XXSP,2012-09-19 08:40:00,
2012-09-19 01:45:00,54.7,50.5,30.06,NE,45,0.0,0.0,86,0.00,,,0.00,WUHU21623XXSP,2012-09-19 08:45:00,
2012-09-19 01:50:00,54.5,50.5,30.06,NE,45,0.0,0.0,86,0.00,,,0.00,WUHU21623XXSP,2012-09-19 08:50:00,
2012-09-19 01:55:00,54.5,50.7,30.07,NE,45,0.0,0.0,87,0.00,,,0.00,WUHU21623XXSP,2012-09-19 08:55:00,
2012-09-19 02:00:00,54.5,50.7,30.07,NE,45,0.0,0.0,87,0.00,,,0.00,WUHU21623XXSP,2012-09-19 09:00:00,
2012-09-19 02:05:00,54.3,50.5,30.07,NE,45,0.0,0.0,87,0.00,,,0.00,WUHU21623XXSP,2012-09-19 09:05:00,
2012-09-19 02:10:00,54.3,50.5,30.07,NE,45,0.0,0.0,87,0.00,,,0.00,WUHU21623XXSP,2012-09-19 09:10:00,
2012-09-19 02:15:00,54.3,50.5,30.06,NE,45,0.0,0.0,87,0.00,,,0.00,WUHU21623XXSP,2012-09-19 09:15:00,
2012-09-19 02:20:00,54.3,50.5,30.07,NE,45,0.0,0.0,87,0.00,,,0.00,WUHU21623XXSP,2012-09-19 09:20:00,
2012-09-19 02:25:00,54.1,50.3,30.07,NE,45,0.0,0.0,87,0.00,,,0.00,WUHU21623XXSP,2012-09-19 09:25:00,
2012-09-19 02:30:00,54.1,50.3,30.07,NE,45,0.0,0.0,87,0.00,,,0.00,WUHU21623XXSP,2012-09-19 09:30:00,
2012-09-19 02:35:00,54.0,50.1,30.07,NE,45,0.0,0.0,87,0.00,,,0.00,WUHU21623XXSP,2012-09-19 09:35:00,
2012-09-19 02:40:00,53.8,50.0,30.07,NE,45,0.0,0.0,87,0.00,,,0.00,WUHU21623XXSP,2012-09-19 09:40:00,
2012-09-19 02:45:00,53.4,49.6,30.07,NE,45,0.0,0.0,87,0.00,,,0.00,WUHU21623XXSP,2012-09-19 09:45:00,
2012-09-19 02:50:00,53.4,49.6,30.07,NE,45,0.0,0.0,87,0.00,,,0.00,WUHU21623XXSP,2012-09-19 09:50:00,
2012-09-19 02:55:00,53.2,49.4,30.07,NE,45,0.0,0.0,87,0.00,,,0.00,WUHU21623XXSP,2012-09-19 09:55:00,
2012-09-19 03:00:00,53.2,49.4,30.07,NE,45,0.0,0.0,87,0.00,,,0.00,WUHU21623XXSP,2012-09-19 10:00:00,
2012-09-19 03:05:00,53.1,49.0,30.08,NE,45,0.0,0.0,86,0.00,,,0.00,WUHU21623XXSP,2012-09-19 10:05:00,
2012-09-19 03:10:00,52.9,48.8,30.07,NE,45,0.0,0.0,86,0.00,,,0.00,WUHU21623XXSP,2012-09-19 10:10:00,
2012-09-19 03:15:00,52.9,49.1,30.07,NE,45,0.0,0.0,86,0.00,,,0.00,WUHU21623XXSP,2012-09-19 10:15:00,
2012-09-19 03:20:00,52.7,48.9,30.08,NE,45,0.0,0.0,87,0.00,,,0.00,WUHU21623XXSP,2012-09-19 10:20:00,
2012-09-19 03:25:00,52.7,48.9,30.08,NE,45,0.0,0.0,87,0.00,,,0.00,WUHU21623XXSP,2012-09-19 10:25:00,
2012-09-19 03:30:00,52.5,48.7,30.08,NE,45,0.0,0.0,87,0.00,,,0.00,WUHU21623XXSP,2012-09-19 10:30:00,
2012-09-19 03:35:00,52.5,48.7,30.08,NE,45,0.0,0.0,87,0.00,,,0.00,WUHU21623XXSP,2012-09-19 10:35:00,
2012-09-19 03:40:00,52.5,48.7,30.08,NE,45,0.0,0.0,87,0.00,,,0.00,WUHU21623XXSP,2012-09-19 10:40:00,
2012-09-19 03:45:00,52.3,48.8,30.08,NE,45,0.0,0.0,88,0.00,,,0.00,WUHU21623XXSP,2012-09-19 10:45:00,
2012-09-19 03:50:00,52.3,48.8,30.08,NE,45,0.0,0.0,88,0.00,,,0.00,WUHU21623XXSP,2012-09-19 10:50:00,
2012-09-19 03:55:00,52.3,48.8,30.08,NE,45,0.0,0.0,88,0.00,,,0.00,WUHU21623XXSP,2012-09-19 10:55:00,
2012-09-19 04:01:00,52.3,48.8,30.08,NE,45,0.0,0.0,88,0.00,,,0.00,WUHU21623XXSP,2012-09-19 11:01:00,
2012-09-19 04:06:00,52.3,48.8,30.08,NE,45,0.0,0.0,88,0.00,,,0.00,WUHU21623XXSP,2012-09-19 11:06:00,
2012-09-19 04:12:00,52.2,49.0,30.08,NE,45,0.0,0.0,89,0.00,,,0.00,WUHU21623XXSP,2012-09-19 11:12:00,
2012-09-19 04:17:00,52.2,49.0,30.08,NE,45,0.0,0.0,89,0.00,,,0.00,WUHU21623XXSP,2012-09-19 11:17:00,
2012-09-19 04:23:00,52.0,48.5,30.08,NE,45,0.0,0.0,88,0.00,,,0.00,WUHU21623XXSP,2012-09-19 11:23:00,
2012-09-19 04:28:00,52.0,48.5,30.08,NE,45,0.0,0.0,88,0.00,,,0.00,WUHU21623XXSP,2012-09-19 11:28:00,
2012-09-19 04:33:00,52.0,48.5,30.09,NE,45,0.0,0.0,88,0.00,,,0.00,WUHU21623XXSP,2012-09-19 11:33:00,
2012-09-19 04:38:00,51.6,48.1,30.09,NE,45,0.0,0.0,88,0.00,,,0.00,WUHU21623XXSP,2012-09-19 11:38:00,
2012-09-19 04:43:00,51.6,48.1,30.09,NE,45,0.0,0.0,88,0.00,,,0.00,WUHU21623XXSP,2012-09-19 11:43:00,
2012-09-19 04:48:00,51.6,48.1,30.09,NE,45,0.0,0.0,88,0.00,,,0.00,WUHU21623XXSP,2012-09-19 11:48:00,
2012-09-19 04:53:00,51.4,48.1,30.09,NE,45,0.0,0.0,88,0.00,,,0.00,WUHU21623XXSP,2012-09-19 11:53:00,
2012-09-19 04:58:00,51.4,47.9,30.09,NE,45,0.0,0.0,88,0.00,,,0.00,WUHU21623XXSP,2012-09-19 11:58:00,
2012-09-19 05:03:00,51.4,47.9,30.09,NE,45,0.0,0.0,88,0.00,,,0.00,WUHU21623XXSP,2012-09-19 12:03:00,
2012-09-19 05:08:00,51.3,48.1,30.10,NE,45,0.0,0.0,89,0.00,,,0.00,WUHU21623XXSP,2012-09-19 12:08:00,
2012-09-19 05:13:00,51.1,47.9,30.09,NE,45,0.0,0.0,89,0.00,,,0.00,WUHU21623XXSP,2012-09-19 12:13:00,
2012-09-19 05:18:00,51.1,47.9,30.09,NE,45,0.0,0.0,89,0.00,,,0.00,WUHU21623XXSP,2012-09-19 12:18:00,
2012-09-19 05:23:00,51.1,47.9,30.09,NE,45,0.0,0.0,89,0.00,,,0.00,WUHU21623XXSP,2012-09-19 12:23:00,
2012-09-19 05:28:00,51.1,47.9,30.09,NE,45,0.0,0.0,89,0.00,,,0.00,WUHU21623XXSP,2012-09-19 12:28:00,
2012-09-19 05:33:00,50.9,47.9,30.10,NE,45,0.0,0.0,89,0.00,,,0.00,WUHU21623XXSP,2012-09-19 12:33:00,
2012-09-19 05:38:00,50.9,47.7,30.10,NE,45,0.0,0.0,89,0.00,,,0.00,WUHU21623XXSP,2012-09-19 12:38:00,
2012-09-19 05:43:00,50.9,47.7,30.10,NE,45,0.0,0.0,89,0.00,,,0.00,WUHU21623XXSP,2012-09-19 12:43:00,
2012-09-19 05:48:00,50.9,47.7,30.10,NE,45,0.0,0.0,89,0.00,,,0.00,WUHU21623XXSP,2012-09-19 12:48:00,
2012-09-19 05:53:00,50.7,47.5,30.10,NE,45,0.0,0.0,89,0.00,,,0.00,WUHU21623XXSP,2012-09-19 12:53:00,
2012-09-19 05:58:00,50.7,47.5,30.10,NE,45,0.0,0.0,89,0.00,,,0.00,WUHU21623XXSP,2012-09-19 12:58:00,
2012-09-19 06:03:00,50.7,47.5,30.10,NE,45,0.0,0.0,89,0.00,,,0.00,WUHU21623XXSP,2012-09-19 13:03:00,
2012-09-19 06:08:00,50.5,47.4,30.10,NE,45,0.0,0.0,89,0.00,,,0.00,WUHU21623XXSP,2012-09-19 13:08:00,
2012-09-19 06:13:00,50.5,47.4,30.10,NE,45,0.0,0.0,89,0.00,,,0.00,WUHU21623XXSP,2012-09-19 13:13:00,
2012-09-19 06:18:00,50.4,47.4,30.10,NE,45,0.0,0.0,89,0.00,,,0.00,WUHU21623XXSP,2012-09-19 13:18:00,
2012-09-19 06:23:00,50.4,47.2,30.10,NE,45,0.0,0.0,89,0.00,,,0.00,WUHU21623XXSP,2012-09-19 13:23:00,
2012-09-19 06:28:00,50.2,47.0,30.10,NE,45,0.0,0.0,89,0.00,,,0.00,WUHU21623XXSP,2012-09-19 13:28:00,
2012-09-19 06:33:00,50.2,47.0,30.10,NE,45,0.0,0.0,89,0.00,,,0.00,WUHU21623XXSP,2012-09-19 13:33:00,
2012-09-19 06:38:00,50.2,47.3,30.10,NE,45,0.0,0.0,90,0.00,,,0.00,WUHU21623XXSP,2012-09-19 13:38:00,
2012-09-19 06:43:00,50.2,47.3,30.10,NE,45,0.0,0.0,90,0.00,,,0.00,WUHU21623XXSP,2012-09-19 13:43:00,
2012-09-19 06:48:00,50.2,47.3,30.10,NE,45,0.0,0.0,90,0.00,,,0.00,WUHU21623XXSP,2012-09-19 13:48:00,
2012-09-19 06:53:00,50.0,47.1,30.10,NE,45,0.0,0.0,90,0.00,,,0.00,WUHU21623XXSP,2012-09-19 13:53:00,
2012-09-19 06:58:00,49.8,47.0,30.10,NE,45,0.0,0.0,90,0.00,,,0.00,WUHU21623XXSP,2012-09-19 13:58:00,
2012-09-19 07:03:00,49.8,47.0,30.10,NE,45,0.0,0.0,90,0.00,,,0.00,WUHU21623XXSP,2012-09-19 14:03:00,
2012-09-19 07:08:00,49.8,47.0,30.10,NE,45,0.0,0.0,90,0.00,,,0.00,WUHU21623XXSP,2012-09-19 14:08:00,
2012-09-19 07:13:00,49.6,47.0,30.10,NE,45,0.0,0.0,90,0.00,,,0.00,WUHU21623XXSP,2012-09-19 14:13:00,
2012-09-19 07:18:00,49.6,46.8,30.10,NE,45,0.0,0.0,90,0.00,,,0.00,WUHU21623XXSP,2012-09-19 14:18:00,
2012-09-19 07:23:00,49.6,46.8,30.10,NE,45,0.0,0.0,90,0.00,,,0.00,WUHU21623XXSP,2012-09-19 14:23:00,
2012-09-19 07:28:00,49.6,46.5,30.10,NE,45,0.0,0.0,89,0.00,,,0.00,WUHU21623XXSP,2012-09-19 14:28:00,
2012-09-19 07:33:00,49.6,46.5,30.10,NE,45,0.0,0.0,89,0.00,,,0.00,WUHU21623XXSP,2012-09-19 14:33:00,
2012-09-19 07:38:00,49.6,46.5,30.10,NE,45,0.0,0.0,89,0.00,,,0.00,WUHU21623XXSP,2012-09-19 14:38:00,
2012-09-19 07:43:00,49.6,46.5,30.10,NE,45,0.0,0.0,89,0.00,,,0.00,WUHU21623XXSP,2012-09-19 14:43:00,
2012-09-19 07:48:00,49.6,46.5,30.11,NE,45,0.0,0.0,89,0.00,,,0.00,WUHU21623XXSP,2012-09-19 14:48:00,
2012-09-19 07:53:00,49.6,46.5,30.11,NE,45,0.0,0.0,89,0.00,,,0.00,WUHU21623XXSP,2012-09-19 14:53:00,
2012-09-19 07:58:00,49.6,46.5,30.11,NE,45,0.0,0.0,89,0.00,,,0.00,WUHU21623XXSP,2012-09-19 14:58:00,
2012-09-19 08:03:00,49.6,46.5,30.11,NE,45,0.0,0.0,89,0.00,,,0.00,WUHU21623XXSP,2012-09-19 15:03:00,
2012-09-19 08:08:00,49.6,46.5,30.11,NE,45,0.0,0.0,89,0.00,,,0.00,WUHU21623XXSP,2012-09-19 15:08:00,
2012-09-19 08:13:00,49.8,46.5,30.11,NE,45,0.0,0.0,89,0.00,,,0.00,WUHU21623XXSP,2012-09-19 15:13:00,
2012-09-19 08:18:00,49.8,46.6,30.11,NE,45,0.0,0.0,89,0.00,,,0.00,WUHU21623XXSP,2012-09-19 15:18:00,
2012-09-19 08:23:00,49.8,46.6,30.11,NE,45,0.0,0.0,89,0.00,,,0.00,WUHU21623XXSP,2012-09-19 15:23:00,
2012-09-19 08:28:00,49.8,46.6,30.11,NE,45,0.0,0.0,89,0.00,,,0.00,WUHU21623XXSP,2012-09-19 15:28:00,
2012-09-19 08:33:00,50.2,47.0,30.12,NE,45,0.0,0.0,90,0.00,,,0.00,WUHU21623XXSP,2012-09-19 15:33:00,
2012-09-19 08:38:00,50.4,47.3,30.11,WSW,247,0.0,0.0,90,0.00,,,0.00,WUHU21623XXSP,2012-09-19 15:38:00,
2012-09-19 08:43:00,50.5,47.5,30.12,WSW,247,0.0,0.0,90,0.00,,,0.00,WUHU21623XXSP,2012-09-19 15:43:00,
2012-09-19 08:48:00,51.1,48.3,30.12,WSW,247,0.0,0.0,91,0.00,,,0.00,WUHU21623XXSP,2012-09-19 15:48:00,
2012-09-19 08:53:00,51.4,48.8,30.12,WSW,247,0.0,0.0,91,0.00,,,0.00,WUHU21623XXSP,2012-09-19 15:53:00,
2012-09-19 08:58:00,51.6,49.0,30.12,WSW,247,0.0,0.0,91,0.00,,,0.00,WUHU21623XXSP,2012-09-19 15:58:00,
2012-09-19 09:03:00,52.0,49.4,30.12,WSW,247,0.0,0.0,91,0.00,,,0.00,WUHU21623XXSP,2012-09-19 16:03:00,
2012-09-19 09:08:00,52.0,49.4,30.12,WSW,247,0.0,0.0,91,0.00,,,0.00,WUHU21623XXSP,2012-09-19 16:08:00,
2012-09-19 09:13:00,52.3,49.7,30.12,SW,225,0.0,0.0,91,0.00,,,0.00,WUHU21623XXSP,2012-09-19 16:13:00,
2012-09-19 09:18:00,52.5,49.9,30.12,SSW,202,0.0,0.0,91,0.00,,,0.00,WUHU21623XXSP,2012-09-19 16:18:00,
2012-09-19 09:23:00,52.7,50.1,30.12,WSW,247,0.0,0.0,91,0.00,,,0.00,WUHU21623XXSP,2012-09-19 16:23:00,
2012-09-19 09:28:00,53.2,50.9,30.12,WSW,247,0.0,0.0,92,0.00,,,0.00,WUHU21623XXSP,2012-09-19 16:28:00,
2012-09-19 09:33:00,53.2,50.9,30.12,WSW,247,0.0,0.0,92,0.00,,,0.00,WUHU21623XXSP,2012-09-19 16:33:00,
2012-09-19 09:38:00,53.4,51.1,30.12,WSW,247,0.0,0.0,92,0.00,,,0.00,WUHU21623XXSP,2012-09-19 16:38:00,
2012-09-19 09:43:00,53.8,51.2,30.12,WSW,247,0.0,0.0,91,0.00,,,0.00,WUHU21623XXSP,2012-09-19 16:43:00,
2012-09-19 09:48:00,54.0,51.4,30.12,SSW,202,0.0,0.0,91,0.00,,,0.00,WUHU21623XXSP,2012-09-19 16:48:00,
2012-09-19 09:53:00,54.1,51.5,30.12,WNW,292,0.0,0.0,91,0.00,,,0.00,WUHU21623XXSP,2012-09-19 16:53:00,
2012-09-19 09:58:00,54.5,51.9,30.12,SW,225,0.0,0.0,91,0.00,,,0.00,WUHU21623XXSP,2012-09-19 16:58:00,
2012-09-19 10:03:00,54.7,52.1,30.12,NW,315,0.0,0.0,91,0.00,,,0.00,WUHU21623XXSP,2012-09-19 17:03:00,
2012-09-19 10:09:00,55.0,52.4,30.12,NW,315,0.0,0.0,91,0.00,,,0.00,WUHU21623XXSP,2012-09-19 17:09:00,
2012-09-19 10:14:00,55.6,52.7,30.12,NNE,22,0.0,0.0,90,0.00,,,0.00,WUHU21623XXSP,2012-09-19 17:14:00,
2012-09-19 10:19:00,55.9,52.9,30.12,ENE,67,0.0,0.0,90,0.00,,,0.00,WUHU21623XXSP,2012-09-19 17:19:00,
2012-09-19 10:24:00,56.3,53.4,30.12,ENE,67,0.0,0.0,90,0.00,,,0.00,WUHU21623XXSP,2012-09-19 17:24:00,
2012-09-19 10:29:00,57.0,53.8,30.12,NE,45,0.0,0.0,89,0.00,,,0.00,WUHU21623XXSP,2012-09-19 17:29:00,
2012-09-19 10:34:00,57.6,54.4,30.12,NE,45,0.0,0.0,89,0.00,,,0.00,WUHU21623XXSP,2012-09-19 17:34:00,
2012-09-19 10:39:00,58.1,54.6,30.12,NE,45,0.0,0.0,88,0.00,,,0.00,WUHU21623XXSP,2012-09-19 17:39:00,
2012-09-19 10:44:00,59.0,55.1,30.12,NE,45,0.0,0.0,87,0.00,,,0.00,WUHU21623XXSP,2012-09-19 17:44:00,
2012-09-19 10:46:00,59.4,55.5,30.12,NE,45,0.0,0.0,87,0.00,,,0.00,WUHU21623XXSP,2012-09-19 17:46:00,
2012-09-19 10:51:00,59.9,55.7,30.11,SSE,157,0.0,0.0,86,0.00,,,0.00,WUHU21623XXSP,2012-09-19 17:51:00,
2012-09-19 10:56:00,60.4,55.9,30.12,NNE,22,0.0,0.0,85,0.00,,,0.00,WUHU21623XXSP,2012-09-19 17:56:00,
2012-09-19 11:01:00,61.0,56.1,30.12,North,0,0.0,0.0,84,0.00,,,0.00,WUHU21623XXSP,2012-09-19 18:01:00,
2012-09-19 11:06:00,61.5,56.6,30.11,NNW,337,0.0,0.0,84,0.00,,,0.00,WUHU21623XXSP,2012-09-19 18:06:00,
2012-09-19 11:12:00,61.9,56.6,30.12,ENE,67,0.0,0.0,83,0.00,,,0.00,WUHU21623XXSP,2012-09-19 18:12:00,
2012-09-19 11:17:00,62.4,57.0,30.12,ESE,112,0.0,0.0,83,0.00,,,0.00,WUHU21623XXSP,2012-09-19 18:17:00,
2012-09-19 11:22:00,63.0,57.3,30.11,North,0,0.0,0.0,82,0.00,,,0.00,WUHU21623XXSP,2012-09-19 18:22:00,
2012-09-19 11:27:00,63.3,57.4,30.11,NNE,22,0.0,0.0,81,0.00,,,0.00,WUHU21623XXSP,2012-09-19 18:27:00,
2012-09-19 11:32:00,63.5,57.5,30.11,SSW,202,0.0,0.0,81,0.00,,,0.00,WUHU21623XXSP,2012-09-19 18:32:00,
2012-09-19 11:37:00,63.7,57.4,30.11,SE,135,0.0,0.0,80,0.00,,,0.00,WUHU21623XXSP,2012-09-19 18:37:00,
2012-09-19 11:42:00,64.2,57.9,30.11,West,270,0.0,0.0,80,0.00,,,0.00,WUHU21623XXSP,2012-09-19 18:42:00,
2012-09-19 11:47:00,64.6,57.9,30.11,SSW,202,0.0,0.0,79,0.00,,,0.00,WUHU21623XXSP,2012-09-19 18:47:00,
2012-09-19 11:52:00,64.8,57.7,30.11,WSW,247,0.0,0.0,78,0.00,,,0.00,WUHU21623XXSP,2012-09-19 18:52:00,
2012-09-19 11:57:00,65.3,58.3,30.10,WSW,247,0.0,0.0,78,0.00,,,0.00,WUHU21623XXSP,2012-09-19 18:57:00,
2012-09-19 12:02:00,65.5,58.1,30.10,SE,135,0.0,0.0,77,0.00,,,0.00,WUHU21623XXSP,2012-09-19 19:02:00,
2012-09-19 12:07:00,66.0,58.6,30.10,WSW,247,0.0,0.0,77,0.00,,,0.00,WUHU21623XXSP,2012-09-19 19:07:00,
2012-09-19 12:12:00,66.4,58.9,30.10,SSW,202,0.0,0.0,77,0.00,,,0.00,WUHU21623XXSP,2012-09-19 19:12:00,
2012-09-19 12:17:00,66.6,59.1,30.10,SSW,202,0.0,0.0,76,0.00,,,0.00,WUHU21623XXSP,2012-09-19 19:17:00,
2012-09-19 12:22:00,66.9,58.7,30.10,SW,225,0.0,0.0,75,0.00,,,0.00,WUHU21623XXSP,2012-09-19 19:22:00,
2012-09-19 12:27:00,67.1,58.7,30.10,SSW,202,0.0,0.0,75,0.00,,,0.00,WUHU21623XXSP,2012-09-19 19:27:00,
2012-09-19 12:32:00,67.3,59.1,30.10,SSW,202,0.0,0.0,75,0.00,,,0.00,WUHU21623XXSP,2012-09-19 19:32:00,
2012-09-19 12:37:00,67.8,59.3,30.09,West,270,0.0,0.0,74,0.00,,,0.00,WUHU21623XXSP,2012-09-19 19:37:00,
2012-09-19 12:42:00,68.0,59.4,30.09,SSW,202,0.0,0.0,74,0.00,,,0.00,WUHU21623XXSP,2012-09-19 19:42:00,
2012-09-19 12:47:00,68.4,59.8,30.09,SW,225,0.0,0.0,74,0.00,,,0.00,WUHU21623XXSP,2012-09-19 19:47:00,
2012-09-19 12:52:00,68.7,59.7,30.09,SW,225,0.0,0.0,73,0.00,,,0.00,WUHU21623XXSP,2012-09-19 19:52:00,
2012-09-19 12:58:00,68.9,59.5,30.09,SSW,202,0.0,0.0,72,0.00,,,0.00,WUHU21623XXSP,2012-09-19 19:58:00,
2012-09-19 13:03:00,69.1,59.3,30.09,WSW,247,0.0,0.0,71,0.00,,,0.00,WUHU21623XXSP,2012-09-19 20:03:00,
2012-09-19 13:08:00,69.4,59.2,30.09,South,180,0.0,0.0,70,0.00,,,0.00,WUHU21623XXSP,2012-09-19 20:08:00,
2012-09-19 13:13:00,69.4,59.2,30.09,SSW,202,0.0,0.0,70,0.00,,,0.00,WUHU21623XXSP,2012-09-19 20:13:00,
2012-09-19 13:18:00,69.6,59.4,30.09,SE,135,0.0,0.0,70,0.00,,,0.00,WUHU21623XXSP,2012-09-19 20:18:00,
2012-09-19 13:23:00,70.0,59.5,30.09,SE,135,0.0,0.0,70,0.00,,,0.00,WUHU21623XXSP,2012-09-19 20:23:00,
2012-09-19 13:28:00,70.2,59.9,30.09,South,180,0.0,0.0,70,0.00,,,0.00,WUHU21623XXSP,2012-09-19 20:28:00,
2012-09-19 13:33:00,70.3,60.1,30.09,SW,225,0.0,0.0,69,0.00,,,0.00,WUHU21623XXSP,2012-09-19 20:33:00,
2012-09-19 13:38:00,70.3,59.6,30.08,NW,315,0.0,0.0,69,0.00,,,0.00,WUHU21623XXSP,2012-09-19 20:38:00,
2012-09-19 13:43:00,70.5,59.8,30.08,NW,315,0.0,0.0,69,0.00,,,0.00,WUHU21623XXSP,2012-09-19 20:43:00,
2012-09-19 13:48:00,70.7,59.6,30.08,SSW,202,0.0,0.0,68,0.00,,,0.00,WUHU21623XXSP,2012-09-19 20:48:00,
2012-09-19 13:53:00,70.9,59.3,30.08,WSW,247,0.0,0.0,67,0.00,,,0.00,WUHU21623XXSP,2012-09-19 20:53:00,
2012-09-19 13:58:00,71.2,59.7,30.08,SSW,202,0.0,0.0,67,0.00,,,0.00,WUHU21623XXSP,2012-09-19 20:58:00,
2012-09-19 14:03:00,71.4,59.9,30.07,West,270,0.0,0.0,67,0.00,,,0.00,WUHU21623XXSP,2012-09-19 21:03:00,
2012-09-19 14:08:00,71.4,59.4,30.07,West,270,0.0,0.0,66,0.00,,,0.00,WUHU21623XXSP,2012-09-19 21:08:00,
2012-09-19 14:13:00,71.8,59.8,30.07,WNW,292,0.0,0.0,66,0.00,,,0.00,WUHU21623XXSP,2012-09-19 21:13:00,
2012-09-19 14:18:00,71.8,59.8,30.07,NW,315,0.0,0.0,66,0.00,,,0.00,WUHU21623XXSP,2012-09-19 21:18:00,
2012-09-19 14:23:00,72.0,59.5,30.07,SW,225,0.0,0.0,65,0.00,,,0.00,WUHU21623XXSP,2012-09-19 21:23:00,
2012-09-19 14:28:00,72.1,59.7,30.06,West,270,0.0,0.0,65,0.00,,,0.00,WUHU21623XXSP,2012-09-19 21:28:00,
2012-09-19 14:33:00,72.3,59.9,30.06,NNW,337,0.0,0.0,65,0.00,,,0.00,WUHU21623XXSP,2012-09-19 21:33:00,
2012-09-19 14:38:00,72.3,59.4,30.06,NNE,22,0.0,0.0,64,0.00,,,0.00,WUHU21623XXSP,2012-09-19 21:38:00,
2012-09-19 14:43:00,72.5,59.6,30.06,NNW,337,0.0,0.0,64,0.00,,,0.00,WUHU21623XXSP,2012-09-19 21:43:00,
2012-09-19 14:48:00,72.7,59.3,30.06,ENE,67,0.0,0.0,63,0.00,,,0.00,WUHU21623XXSP,2012-09-19 21:48:00,
2012-09-19 14:53:00,73.0,59.2,30.06,SSW,202,0.0,0.0,62,0.00,,,0.00,WUHU21623XXSP,2012-09-19 21:53:00,
2012-09-19 14:58:00,73.0,58.7,30.05,SSW,202,0.0,0.0,61,0.00,,,0.00,WUHU21623XXSP,2012-09-19 21:58:00,
2012-09-19 15:03:00,73.2,59.8,30.05,WSW,247,0.0,0.0,63,0.00,,,0.00,WUHU21623XXSP,2012-09-19 22:03:00,
2012-09-19 15:08:00,73.6,59.7,30.06,WSW,247,0.0,0.0,62,0.00,,,0.00,WUHU21623XXSP,2012-09-19 22:08:00,
2012-09-19 15:13:00,73.6,59.3,30.05,WNW,292,0.0,0.0,61,0.00,,,0.00,WUHU21623XXSP,2012-09-19 22:13:00,
2012-09-19 15:18:00,73.8,59.0,30.05,SW,225,0.0,0.0,60,0.00,,,0.00,WUHU21623XXSP,2012-09-19 22:18:00,
2012-09-19 15:23:00,73.9,59.2,30.05,SSW,202,0.0,0.0,60,0.00,,,0.00,WUHU21623XXSP,2012-09-19 22:23:00,
2012-09-19 15:28:00,74.1,58.9,30.05,WSW,247,0.0,0.0,59,0.00,,,0.00,WUHU21623XXSP,2012-09-19 22:28:00,
2012-09-19 15:33:00,74.3,59.0,30.05,SE,135,0.0,0.0,59,0.00,,,0.00,WUHU21623XXSP,2012-09-19 22:33:00,
2012-09-19 15:39:00,74.3,59.0,30.05,NE,45,0.0,0.0,59,0.00,,,0.00,WUHU21623XXSP,2012-09-19 22:39:00,
2012-09-19 15:44:00,74.3,58.5,30.05,SW,225,0.0,0.0,58,0.00,,,0.00,WUHU21623XXSP,2012-09-19 22:44:00,
2012-09-19 15:49:00,74.5,58.7,30.05,NNW,337,0.0,0.0,58,0.00,,,0.00,WUHU21623XXSP,2012-09-19 22:49:00,
2012-09-19 15:54:00,74.5,58.7,30.05,SW,225,0.0,0.0,58,0.00,,,0.00,WUHU21623XXSP,2012-09-19 22:54:00,
2012-09-19 15:59:00,74.5,58.7,30.05,SSE,157,0.0,0.0,58,0.00,,,0.00,WUHU21623XXSP,2012-09-19 22:59:00,
2012-09-19 16:04:00,74.3,58.5,30.05,WNW,292,0.0,0.0,58,0.00,,,0.00,WUHU21623XXSP,2012-09-19 23:04:00,
2012-09-19 16:09:00,74.3,59.0,30.05,SSW,202,0.0,0.0,59,0.00,,,0.00,WUHU21623XXSP,2012-09-19 23:09:00,
2012-09-19 16:14:00,74.1,58.4,30.04,SSW,202,0.0,0.0,58,0.00,,,0.00,WUHU21623XXSP,2012-09-19 23:14:00,
2012-09-19 16:19:00,74.1,58.9,30.04,SSW,202,0.0,0.0,59,0.00,,,0.00,WUHU21623XXSP,2012-09-19 23:19:00,
2012-09-19 16:24:00,73.9,58.7,30.04,West,270,0.0,0.0,59,0.00,,,0.00,WUHU21623XXSP,2012-09-19 23:24:00,
2012-09-19 16:29:00,73.9,58.7,30.04,West,270,0.0,0.0,59,0.00,,,0.00,WUHU21623XXSP,2012-09-19 23:29:00,
2012-09-19 16:34:00,73.9,59.2,30.04,WSW,247,0.0,0.0,60,0.00,,,0.00,WUHU21623XXSP,2012-09-19 23:34:00,
2012-09-19 16:39:00,73.8,59.0,30.04,WNW,292,0.0,0.0,60,0.00,,,0.00,WUHU21623XXSP,2012-09-19 23:39:00,
2012-09-19 16:44:00,73.6,58.8,30.04,SE,135,0.0,0.0,60,0.00,,,0.00,WUHU21623XXSP,2012-09-19 23:44:00,
2012-09-19 16:49:00,73.6,58.8,30.04,NE,45,0.0,0.0,60,0.00,,,0.00,WUHU21623XXSP,2012-09-19 23:49:00,
2012-09-19 16:54:00,73.4,58.6,30.03,SSW,202,0.0,0.0,60,0.00,,,0.00,WUHU21623XXSP,2012-09-19 23:54:00,
2012-09-19 16:59:00,73.2,58.5,30.03,SW,225,0.0,0.0,60,0.00,,,0.00,WUHU21623XXSP,2012-09-19 23:59:00,
2012-09-19 17:04:00,73.2,58.9,30.03,SE,135,0.0,0.0,61,0.00,,,0.00,WUHU21623XXSP,2012-09-20 00:04:00,
2012-09-19 17:09:00,73.0,58.7,30.03,WSW,247,0.0,0.0,61,0.00,,,0.00,WUHU21623XXSP,2012-09-20 00:09:00,
2012-09-19 17:14:00,73.0,58.7,30.03,South,180,0.0,0.0,61,0.00,,,0.00,WUHU21623XXSP,2012-09-20 00:14:00,
2012-09-19 17:19:00,72.7,58.4,30.03,SSW,202,0.0,0.0,61,0.00,,,0.00,WUHU21623XXSP,2012-09-20 00:19:00,
2012-09-19 17:24:00,72.3,59.0,30.03,SSW,202,0.0,0.0,63,0.00,,,0.00,WUHU21623XXSP,2012-09-20 00:24:00,
2012-09-19 17:29:00,72.0,58.6,30.03,WSW,247,0.0,0.0,63,0.00,,,0.00,WUHU21623XXSP,2012-09-20 00:29:00,
2012-09-19 17:34:00,71.8,58.5,30.02,WSW,247,0.0,0.0,63,0.00,,,0.00,WUHU21623XXSP,2012-09-20 00:34:00,
2012-09-19 17:39:00,71.4,58.6,30.03,WSW,247,0.0,0.0,64,0.00,,,0.00,WUHU21623XXSP,2012-09-20 00:39:00,
2012-09-19 17:44:00,71.2,58.8,30.02,South,180,0.0,0.0,65,0.00,,,0.00,WUHU21623XXSP,2012-09-20 00:44:00,
2012-09-19 17:49:00,70.9,58.5,30.02,South,180,0.0,0.0,65,0.00,,,0.00,WUHU21623XXSP,2012-09-20 00:49:00,
2012-09-19 17:54:00,70.5,58.6,30.02,WSW,247,0.0,0.0,66,0.00,,,0.00,WUHU21623XXSP,2012-09-20 00:54:00,
2012-09-19 17:59:00,70.2,58.4,30.02,WSW,247,0.0,0.0,66,0.00,,,0.00,WUHU21623XXSP,2012-09-20 00:59:00,
2012-09-19 18:04:00,70.0,58.0,30.02,WSW,247,0.0,0.0,66,0.00,,,0.00,WUHU21623XXSP,2012-09-20 01:04:00,
2012-09-19 18:09:00,69.6,58.1,30.02,SW,225,0.0,0.0,67,0.00,,,0.00,WUHU21623XXSP,2012-09-20 01:09:00,
2012-09-19 18:14:00,69.3,58.2,30.02,South,180,0.0,0.0,68,0.00,,,0.00,WUHU21623XXSP,2012-09-20 01:14:00,
2012-09-19 18:19:00,68.7,58.1,30.02,South,180,0.0,0.0,69,0.00,,,0.00,WUHU21623XXSP,2012-09-20 01:19:00,
2012-09-19 18:24:00,68.2,57.7,30.02,South,180,0.0,0.0,69,0.00,,,0.00,WUHU21623XXSP,2012-09-20 01:24:00,
2012-09-19 18:29:00,67.8,57.7,30.02,South,180,0.0,0.0,70,0.00,,,0.00,WUHU21623XXSP,2012-09-20 01:29:00,
2012-09-19 18:34:00,67.3,57.6,30.02,South,180,0.0,0.0,71,0.00,,,0.00,WUHU21623XXSP,2012-09-20 01:34:00,
2012-09-19 18:39:00,66.9,57.2,30.02,WSW,247,0.0,0.0,71,0.00,,,0.00,WUHU21623XXSP,2012-09-20 01:39:00,
2012-09-19 18:44:00,66.7,57.4,30.02,SW,225,0.0,0.0,72,0.00,,,0.00,WUHU21623XXSP,2012-09-20 01:44:00,
2012-09-19 18:49:00,66.4,57.2,30.02,SW,225,0.0,0.0,72,0.00,,,0.00,WUHU21623XXSP,2012-09-20 01:49:00,
2012-09-19 18:54:00,65.8,56.9,30.02,SW,225,0.0,0.0,73,0.00,,,0.00,WUHU21623XXSP,2012-09-20 01:54:00,
2012-09-19 18:59:00,65.5,56.8,30.02,SW,225,0.0,0.0,74,0.00,,,0.00,WUHU21623XXSP,2012-09-20 01:59:00,
2012-09-19 19:04:00,65.1,56.6,30.02,SW,225,0.0,0.0,74,0.00,,,0.00,WUHU21623XXSP,2012-09-20 02:04:00,
2012-09-19 19:09:00,64.8,56.3,30.02,SW,225,0.0,0.0,74,0.00,,,0.00,WUHU21623XXSP,2012-09-20 02:09:00,
2012-09-19 19:14:00,64.6,56.1,30.02,SW,225,0.0,0.0,74,0.00,,,0.00,WUHU21623XXSP,2012-09-20 02:14:00,
2012-09-19 19:19:00,64.2,56.1,30.02,SW,225,0.0,0.0,75,0.00,,,0.00,WUHU21623XXSP,2012-09-20 02:19:00,
2012-09-19 19:24:00,64.0,55.9,30.02,SW,225,0.0,0.0,75,0.00,,,0.00,WUHU21623XXSP,2012-09-20 02:24:00,
2012-09-19 19:29:00,63.7,55.6,30.02,SW,225,0.0,0.0,75,0.00,,,0.00,WUHU21623XXSP,2012-09-20 02:29:00,
2012-09-19 19:34:00,63.3,55.2,30.02,SW,225,0.0,0.0,75,0.00,,,0.00,WUHU21623XXSP,2012-09-20 02:34:00,
2012-09-19 19:39:00,63.1,55.4,30.02,SW,225,0.0,0.0,76,0.00,,,0.00,WUHU21623XXSP,2012-09-20 02:39:00,
2012-09-19 19:44:00,62.8,55.0,30.02,SW,225,0.0,0.0,76,0.00,,,0.00,WUHU21623XXSP,2012-09-20 02:44:00,
2012-09-19 19:49:00,62.2,54.5,30.03,SW,225,0.0,0.0,76,0.00,,,0.00,WUHU21623XXSP,2012-09-20 02:49:00,
2012-09-19 19:54:00,62.1,54.7,30.03,SW,225,0.0,0.0,77,0.00,,,0.00,WUHU21623XXSP,2012-09-20 02:54:00,
2012-09-19 19:59:00,61.9,54.6,30.03,SW,225,0.0,0.0,77,0.00,,,0.00,WUHU21623XXSP,2012-09-20 02:59:00,
2012-09-19 20:04:00,61.5,54.2,30.03,SW,225,0.0,0.0,77,0.00,,,0.00,WUHU21623XXSP,2012-09-20 03:04:00,
2012-09-19 20:09:00,61.3,54.1,30.02,SW,225,0.0,0.0,77,0.00,,,0.00,WUHU21623XXSP,2012-09-20 03:09:00,
2012-09-19 20:14:00,61.0,54.1,30.03,SW,225,0.0,0.0,78,0.00,,,0.00,WUHU21623XXSP,2012-09-20 03:14:00,
2012-09-19 20:19:00,60.6,53.8,30.03,SW,225,0.0,0.0,78,0.00,,,0.00,WUHU21623XXSP,2012-09-20 03:19:00,
2012-09-19 20:24:00,60.4,53.8,30.03,SW,225,0.0,0.0,78,0.00,,,0.00,WUHU21623XXSP,2012-09-20 03:24:00,
2012-09-19 20:29:00,60.4,54.0,30.03,SW,225,0.0,0.0,79,0.00,,,0.00,WUHU21623XXSP,2012-09-20 03:29:00,
2012-09-19 20:34:00,60.1,54.0,30.03,SW,225,0.0,0.0,80,0.00,,,0.00,WUHU21623XXSP,2012-09-20 03:34:00,
2012-09-19 20:39:00,59.7,53.6,30.04,SW,225,0.0,0.0,80,0.00,,,0.00,WUHU21623XXSP,2012-09-20 03:39:00,
2012-09-19 20:44:00,59.5,53.4,30.03,SW,225,0.0,0.0,80,0.00,,,0.00,WUHU21623XXSP,2012-09-20 03:44:00,
2012-09-19 20:49:00,59.2,53.6,30.03,SW,225,0.0,0.0,81,0.00,,,0.00,WUHU21623XXSP,2012-09-20 03:49:00,
2012-09-19 20:54:00,59.0,53.2,30.03,SW,225,0.0,0.0,81,0.00,,,0.00,WUHU21623XXSP,2012-09-20 03:54:00,
2012-09-19 20:59:00,58.8,53.0,30.03,SW,225,0.0,0.0,81,0.00,,,0.00,WUHU21623XXSP,2012-09-20 03:59:00,
2012-09-19 21:00:00,58.8,53.0,30.03,SW,225,0.0,0.0,81,0.00,,,0.00,WUHU21623XXSP,2012-09-20 04:00:00,
2012-09-19 21:02:00,58.8,53.0,30.03,SW,225,0.0,0.0,81,0.00,,,0.00,WUHU21623XXSP,2012-09-20 04:02:00,
2012-09-19 21:07:00,58.5,52.7,30.03,SW,225,0.0,0.0,81,0.00,,,0.00,WUHU21623XXSP,2012-09-20 04:07:00,
2012-09-19 21:12:00,58.3,52.5,30.04,SW,225,0.0,0.0,81,0.00,,,0.00,WUHU21623XXSP,2012-09-20 04:12:00,
2012-09-19 21:17:00,57.9,52.4,30.04,SW,225,0.0,0.0,82,0.00,,,0.00,WUHU21623XXSP,2012-09-20 04:17:00,
2012-09-19 21:22:00,57.9,52.4,30.04,SW,225,0.0,0.0,82,0.00,,,0.00,WUHU21623XXSP,2012-09-20 04:22:00,
2012-09-19 21:27:00,57.9,52.4,30.04,SW,225,0.0,0.0,82,0.00,,,0.00,WUHU21623XXSP,2012-09-20 04:27:00,
2012-09-19 21:32:00,57.6,52.1,30.04,SW,225,0.0,0.0,82,0.00,,,0.00,WUHU21623XXSP,2012-09-20 04:32:00,
2012-09-19 21:37:00,57.6,52.1,30.04,SW,225,0.0,0.0,82,0.00,,,0.00,WUHU21623XXSP,2012-09-20 04:37:00,
2012-09-19 21:42:00,57.4,51.9,30.04,SW,225,0.0,0.0,82,0.00,,,0.00,WUHU21623XXSP,2012-09-20 04:42:00,
2012-09-19 21:47:00,57.4,51.9,30.04,SW,225,0.0,0.0,82,0.00,,,0.00,WUHU21623XXSP,2012-09-20 04:47:00,
2012-09-19 21:52:00,57.2,51.7,30.04,SW,225,0.0,0.0,82,0.00,,,0.00,WUHU21623XXSP,2012-09-20 04:52:00,
2012-09-19 21:57:00,57.0,51.5,30.04,SW,225,0.0,0.0,82,0.00,,,0.00,WUHU21623XXSP,2012-09-20 04:57:00,
2012-09-19 22:02:00,57.0,51.5,30.04,SW,225,0.0,0.0,82,0.00,,,0.00,WUHU21623XXSP,2012-09-20 05:02:00,
2012-09-19 22:07:00,57.0,51.5,30.04,SW,225,0.0,0.0,82,0.00,,,0.00,WUHU21623XXSP,2012-09-20 05:07:00,
2012-09-19 22:12:00,56.8,51.4,30.03,SW,225,0.0,0.0,82,0.00,,,0.00,WUHU21623XXSP,2012-09-20 05:12:00,
2012-09-19 22:17:00,56.7,51.7,30.04,SW,225,0.0,0.0,83,0.00,,,0.00,WUHU21623XXSP,2012-09-20 05:17:00,
2012-09-19 22:23:00,56.5,51.3,30.04,SW,225,0.0,0.0,83,0.00,,,0.00,WUHU21623XXSP,2012-09-20 05:23:00,
2012-09-19 22:28:00,56.5,51.3,30.04,SW,225,0.0,0.0,83,0.00,,,0.00,WUHU21623XXSP,2012-09-20 05:28:00,
2012-09-19 22:33:00,56.1,51.2,30.04,SW,225,0.0,0.0,83,0.00,,,0.00,WUHU21623XXSP,2012-09-20 05:33:00,
2012-09-19 22:38:00,55.9,50.8,30.04,SW,225,0.0,0.0,83,0.00,,,0.00,WUHU21623XXSP,2012-09-20 05:38:00,
2012-09-19 22:43:00,55.9,50.8,30.03,SW,225,0.0,0.0,83,0.00,,,0.00,WUHU21623XXSP,2012-09-20 05:43:00,
2012-09-19 22:48:00,55.8,50.6,30.04,SW,225,0.0,0.0,83,0.00,,,0.00,WUHU21623XXSP,2012-09-20 05:48:00,
2012-09-19 22:53:00,55.6,50.4,30.04,SW,225,0.0,0.0,83,0.00,,,0.00,WUHU21623XXSP,2012-09-20 05:53:00,
2012-09-19 22:58:00,55.6,50.4,30.04,SW,225,0.0,0.0,83,0.00,,,0.00,WUHU21623XXSP,2012-09-20 05:58:00,
2012-09-19 23:03:00,55.2,50.1,30.04,SW,225,0.0,0.0,83,0.00,,,0.00,WUHU21623XXSP,2012-09-20 06:03:00,
2012-09-19 23:08:00,55.2,50.1,30.05,SW,225,0.0,0.0,83,0.00,,,0.00,WUHU21623XXSP,2012-09-20 06:08:00,
2012-09-19 23:13:00,55.2,50.4,30.05,SW,225,0.0,0.0,84,0.00,,,0.00,WUHU21623XXSP,2012-09-20 06:13:00,
2012-09-19 23:18:00,55.2,50.4,30.05,SW,225,0.0,0.0,84,0.00,,,0.00,WUHU21623XXSP,2012-09-20 06:18:00,
2012-09-19 23:23:00,55.0,50.2,30.05,SW,225,0.0,0.0,84,0.00,,,0.00,WUHU21623XXSP,2012-09-20 06:23:00,
2012-09-19 23:28:00,55.0,50.2,30.04,SW,225,0.0,0.0,84,0.00,,,0.00,WUHU21623XXSP,2012-09-20 06:28:00,
2012-09-19 23:33:00,54.9,50.1,30.04,SW,225,0.0,0.0,84,0.00,,,0.00,WUHU21623XXSP,2012-09-20 06:33:00,
2012-09-19 23:38:00,54.7,50.2,30.04,SW,225,0.0,0.0,85,0.00,,,0.00,WUHU21623XXSP,2012-09-20 06:38:00,
2012-09-19 23:43:00,54.5,49.7,30.05,SW,225,0.0,0.0,84,0.00,,,0.00,WUHU21623XXSP,2012-09-20 06:43:00,
2012-09-19 23:48:00,54.3,50.0,30.05,SW,225,0.0,0.0,85,0.00,,,0.00,WUHU21623XXSP,2012-09-20 06:48:00,
2012-09-19 23:53:00,54.3,49.9,30.04,SW,225,0.0,0.0,85,0.00,,,0.00,WUHU21623XXSP,2012-09-20 06:53:00,
2012-09-19 23:58:00,54.1,49.7,30.05,SW,225,0.0,0.0,85,0.00,,,0.00,WUHU21623XXSP,2012-09-20 06:58:00,